Location: Knobs
(40.8333°S, 175.2333°E)
Time: 03:11:50
(UTC+00:00)

Cosmos 1933 - Pass Details

Date: 12 June 2024
Orbit: 531 x 539 km, 82.5° (Epoch: 22 July)

Event Time Altitude Azimuth Distance (km) Brightness Sun altitude
Rises 18:24:36 0° 323° (NW) 2,677 6.6 -14.0°
Reaches altitude 10° 18:27:06 10° 307° (NW) 1,795 5.6 -13.5°
Maximum altitude 18:30:15 23° 254° (WSW) 1,196 4.4 -12.9°
Drops below altitude 10° 18:33:26 10° 201° (SSW) 1,817 5.6 -12.4°
Sets 18:35:58 0° 186° (S) 2,718 6.6 -11.9°
